TimeCEST,TemperatureF,Dew PointF,Humidity,Sea Level PressureIn,VisibilityMPH,Wind Direction,Wind SpeedMPH,Gust SpeedMPH,PrecipitationIn,Events,Conditions,WindDirDegrees,DateUTC
12:50 AM,57.2,51.8,82,30.01,-9999.0,East,5.8,-,N/A,,Clear,80,2012-10-23 22:50:00
1:50 AM,55.4,50.0,82,30.01,-9999.0,East,4.6,-,N/A,,Clear,80,2012-10-23 23:50:00
2:50 AM,55.4,50.0,82,30.01,-9999.0,East,4.6,-,N/A,,Clear,80,2012-10-24 00:50:00
3:50 AM,55.4,50.0,82,29.98,-9999.0,ENE,4.6,-,N/A,,Clear,60,2012-10-24 01:50:00
4:50 AM,59.0,51.8,77,29.98,-9999.0,ENE,9.2,-,N/A,,Clear,60,2012-10-24 02:50:00
5:50 AM,60.8,50.0,68,29.98,-9999.0,NE,11.5,-,N/A,,Clear,50,2012-10-24 03:50:00
6:50 AM,60.8,50.0,68,29.98,-9999.0,NE,12.7,-,N/A,,Clear,40,2012-10-24 04:50:00
7:50 AM,60.8,51.8,72,29.98,-9999.0,NE,8.1,-,N/A,,Clear,50,2012-10-24 05:50:00
8:50 AM,66.2,55.4,68,30.01,-9999.0,NE,8.1,-,N/A,,Clear,40,2012-10-24 06:50:00
9:50 AM,68.0,55.4,64,30.01,6.2,Variable,3.5,-,N/A,,Partly Cloudy,0,2012-10-24 07:50:00
10:50 AM,73.4,59.0,61,30.01,6.2,Calm,Calm,-,N/A,,Partly Cloudy,0,2012-10-24 08:50:00
11:50 AM,75.2,59.0,57,30.01,6.2,East,4.6,-,N/A,,Partly Cloudy,80,2012-10-24 09:50:00
12:50 PM,75.2,57.2,53,29.98,6.2,ENE,9.2,-,N/A,,Partly Cloudy,70,2012-10-24 10:50:00
1:50 PM,77.0,57.2,50,29.95,6.2,ENE,10.4,-,N/A,,Partly Cloudy,70,2012-10-24 11:50:00
2:50 PM,77.0,57.2,50,29.95,6.2,East,12.7,-,N/A,,Partly Cloudy,90,2012-10-24 12:50:00
3:50 PM,75.2,57.2,53,29.95,6.2,East,12.7,-,N/A,,Partly Cloudy,80,2012-10-24 13:50:00
4:50 PM,75.2,57.2,53,29.95,-9999.0,East,13.8,-,N/A,,Clear,80,2012-10-24 14:50:00
5:50 PM,71.6,57.2,60,29.95,6.2,East,12.7,-,N/A,,Partly Cloudy,100,2012-10-24 15:50:00
6:50 PM,68.0,57.2,68,29.98,6.2,ENE,10.4,-,N/A,,Partly Cloudy,70,2012-10-24 16:50:00
7:50 PM,66.2,59.0,78,29.98,6.2,NE,8.1,-,N/A,,Partly Cloudy,40,2012-10-24 17:50:00
8:50 PM,64.4,57.2,77,29.98,6.2,ENE,8.1,-,N/A,,Partly Cloudy,60,2012-10-24 18:50:00
9:50 PM,62.6,55.4,77,29.98,6.2,NE,8.1,-,N/A,,Partly Cloudy,50,2012-10-24 19:50:00
10:50 PM,62.6,55.4,77,29.98,6.2,ENE,10.4,-,N/A,,Partly Cloudy,70,2012-10-24 20:50:00
11:50 PM,64.4,57.2,77,29.98,6.2,ENE,13.8,-,N/A,,Partly Cloudy,70,2012-10-24 21:50:00